Regional Weather Roundup
Issued by NWS Jackson, KY

Home | Current Version | Previous Version | Text Only | Print | Product List | Glossary On
Versions: 1 2 3 4 5 6 7 8 9 10 11 12 13 14 15 16 17 18 19 20 21 22 23 24 25 26 27 28 29 30 31 32 33 34 35 36 37 38 39 40 41 42 43 44 45 46 47 48 49 50
000
ASUS43 KJKL 030610
RWRJKL

EAST KENTUCKY HOURLY WEATHER ROUNDUP
NATIONAL WEATHER SERVICE JACKSON KY
100 AM EST SAT DEC 03 2016

NOTE: "FAIR" INDICATES FEW OR NO CLOUDS BELOW 12,000 FEET WITH
NO SIGNIFICANT WEATHER AND/OR OBSTRUCTIONS TO VISIBILITY.

* THESE REPORTS ARE NOT UNDER NWS QUALITY CONTROL AND MAY NOT
  REPORT WEATHER SUCH AS PRECIPITATION AND FOG.

KYZ079-080-083-085-087-088-110-112-115-119-120-030700
...EASTERN KENTUCKY...

CITY           SKY/WX    TMP DP  RH WIND       PRES   REMARKS
JACKSON        CLOUDY    36  29  75 CALM      30.31R
6HR MIN TEMP:  34; 6HR MAX TEMP:  37;

LONDON         PTCLDY    31  26  82 CALM      30.32R
6HR MIN TEMP:  30; 6HR MAX TEMP:  41;

SOMERSET*      CLOUDY    30  28  93 CALM      30.35S
MONTICELLO*    CLEAR     26  24  92 VRB6      30.35S WCI  19
6HR MIN TEMP:  26; 6HR MAX TEMP:  42;

WILLIAMSBURG*  CLEAR     32  30  93 CALM      30.32S
MIDDLESBORO*   CLEAR     30  29  94 CALM      30.32S
6HR MIN TEMP:  30; 6HR MAX TEMP:  38;

HARLAN APT*    CLOUDY    34  28  80 CALM      30.30S
PIKE CO APT*   CLOUDY    35  30  82 CALM      30.29F
MOREHEAD APT*  CLOUDY    37  28  70 SW3       30.33S
ASHLAND*       CLOUDY    39  30  70 W3        30.30F
$$

KYZ035-036-041-042-044-050-067-078-099-030700
...CENTRAL KENTUCKY...

CITY           SKY/WX    TMP DP  RH WIND       PRES   REMARKS
MT STERLING*   CLOUDY    37  32  81 CALM      30.33S
FLEMING/MASON* CLOUDY    37  30  78 W3        30.33S
DANVILLE*      CLOUDY    32  30  93 CALM      30.33F
LEXINGTON      CLOUDY    40  29  64 CALM      30.32S
6HR MIN TEMP:  39; 6HR MAX TEMP:  40;

FRANKFORT      CLOUDY    40  31  70 CALM      30.32S
6HR MIN TEMP:  39; 6HR MAX TEMP:  41;

LOUISVILLE     CLOUDY    42  27  55 NW7       30.33F
6HR MIN TEMP:  42; 6HR MAX TEMP:  44;

LEBANON*       CLOUDY    36  32  87 CALM      30.33F
GLASGOW*       CLEAR     32  29  90 CALM      30.34S
BOWLING GREEN  CLEAR     35  30  82 CALM      30.36R
6HR MIN TEMP:  33; 6HR MAX TEMP:  46;

$$

KYZ091>093-OHZ055-061-077-WVZ005-015-034-035-042-030700
...SOUTHERN OHIO/WEST VIRGINIA...

CITY           SKY/WX    TMP DP  RH WIND       PRES   REMARKS
COVINGTON      CLOUDY    37  34  89 NW7       30.31S WCI  32
DAYTON         CLOUDY    36  30  79 W5        30.29F WCI  32
WILMINGTON     CLOUDY    36  31  82 W6        30.29S WCI  31
CHARLESTON     CLOUDY    38  29  70 VRB3      30.29S
PINEVILLE*     CLOUDY    37  26  65 MISG      30.30F
BLUEFIELD      CLOUDY    30  23  75 NW8       30.21S WCI  22
LOGAN CO APT*  CLOUDY    36  27  69 CALM      30.27F
$$

VAZ002-007-008-TNZ017-027-036-066-071-030700
...SOUTHWEST VIRGINIA/EAST TENNESSEE...

CITY           SKY/WX    TMP DP  RH WIND       PRES   REMARKS
WISE*          CLOUDY    32  28  86 CALM      30.25S
JONESVILLE*      N/A    N/A N/A N/A CALM      30.32S
ABINGDON*      CLOUDY    37  30  75 N8        30.25F WCI  31
MORRISTOWN*    CLEAR     36  30  80 N6        30.27R WCI  31
SEVIERVILLE*   CLEAR     28  27  93 CALM      30.29R
KNOXVILLE      MOCLDY    37  31  78 CALM      30.20F
OAK RIDGE      PTCLDY    39  30  70 CALM      30.31R
NASHVILLE      CLOUDY    42  30  62 N6        30.34S
$$

...KEY TO REMARKS...
VSB - VISIBILITY IN MILES
WCI - WIND CHILL INDEX
HX  - HEAT INDEX

$$



USA.gov is the U.S. government's official web portal to all federal, state and local government web resources and services.